FW2178 Weather Reports


Display with metric or nautical units.
time (UTC)temp
F
wind
direction
speed
MPH
gust
MPH
rain 1hr
in
rain 24hr
in
rain mn
in
humidity
%
barometer
mb
20260505211235 59 154 0.0 0.0 0.00 0.00 0.00 79 1014.7
20260505211023 59 152 0.0 0.0 0.00 0.00 0.00 79 1014.7
20260505210236 59 149 0.0 0.0 0.00 0.00 0.00 79 1014.8
20260505205735 59 149 0.0 0.0 0.00 0.00 0.00 80 1014.7
20260505205518 59 154 0.0 0.0 0.00 0.00 0.00 79 1014.6
20260505204731 59 161 0.0 0.0 0.00 0.00 0.00 80 1014.6
20260505204523 58 148 0.0 0.0 0.00 0.00 0.00 80 1014.9
20260505203729 58 151 0.0 0.0 0.00 0.00 0.00 80 1014.7
20260505203519 58 139 0.0 0.0 0.00 0.00 0.00 81 1014.8
20260505202730 58 143 0.0 0.0 0.00 0.00 0.00 80 1014.8
20260505202230 58 141 0.0 0.0 0.00 0.00 0.00 81 1014.8
20260505202018 58 140 0.0 0.0 0.00 0.00 0.00 81 1014.8
20260505201230 58 154 0.0 0.0 0.00 0.00 0.00 81 1014.8
20260505200730 58 135 0.0 0.0 0.00 0.00 0.00 80 1015.0
20260505200517 58 153 0.0 0.0 0.00 0.00 0.00 81 1014.7
20260505195729 58 147 0.0 0.0 0.00 0.00 0.00 81 1014.9
20260505195229 58 163 0.0 0.0 0.00 0.00 0.00 81 1014.9
20260505194729 58 143 0.0 0.0 0.00 0.00 0.00 81 1014.8
20260505194229 58 155 0.0 0.0 0.00 0.00 0.00 82 1014.8
20260505193730 58 155 0.0 0.0 0.00 0.00 0.00 82 1014.6
20260505193525 58 160 0.0 0.0 0.00 0.00 0.00 81 1014.8
20260505192729 58 149 0.0 0.0 0.00 0.00 0.00 81 1014.8
20260505192229 58 149 0.0 1.0 0.00 0.00 0.00 81 1014.8
20260505191730 58 146 0.0 1.0 0.00 0.00 0.00 82 1014.6
20260505191229 58 155 0.0 0.0 0.00 0.00 0.00 81 1014.6
20260505190730 58 155 0.0 0.0 0.00 0.00 0.00 82 1014.5
20260505190230 58 145 0.0 0.0 0.00 0.00 0.00 82 1014.8
20260505185730 58 140 0.0 0.0 0.00 0.00 0.00 82 1014.5
20260505185525 58 142 0.0 0.0 0.00 0.00 0.00 82 1014.6
20260505184728 57 143 0.0 0.0 0.00 0.00 0.00 82 1014.5
20260505184229 57 161 0.0 0.0 0.00 0.00 0.00 83 1014.5
20260505183730 57 160 0.0 0.0 0.00 0.00 0.00 82 1014.5
20260505183230 57 152 0.0 0.0 0.00 0.00 0.00 83 1014.7
20260505182729 57 144 0.0 0.0 0.00 0.00 0.00 83 1014.7
20260505182230 57 161 0.0 0.0 0.00 0.00 0.00 83 1014.6
20260505181730 57 156 0.0 0.0 0.00 0.00 0.00 83 1014.5
20260505181230 57 144 0.0 0.0 0.00 0.00 0.00 83 1014.6
20260505180729 57 143 0.0 0.0 0.00 0.00 0.00 83 1014.7
20260505180229 57 142 0.0 0.0 0.00 0.00 0.00 84 1014.7
20260505180025 57 149 0.0 0.0 0.00 0.00 0.00 84 1014.7
20260505175230 57 147 0.0 0.0 0.00 0.00 0.00 83 1014.5
20260505174814 57 142 0.0 0.0 0.00 0.00 0.00 84 1014.7
20260505174756 57 133 0.0 0.0 0.00 0.00 0.00 83 1014.4
20260505173728 56 140 0.0 0.0 0.00 0.00 0.00 84 1014.7
20260505173229 56 143 0.0 0.0 0.00 0.00 0.00 84 1014.6
20260505172731 56 153 0.0 0.0 0.00 0.00 0.00 84 1014.5
20260505172229 56 148 0.0 0.0 0.00 0.00 0.00 84 1014.4
20260505171729 56 157 0.0 0.0 0.00 0.00 0.00 85 1014.4
20260505171231 56 148 0.0 0.0 0.00 0.00 0.00 85 1014.5
20260505170729 56 141 0.0 0.0 0.00 0.00 0.00 85 1014.6
20260505170229 56 150 0.0 0.0 0.00 0.00 0.00 85 1014.5
20260505165729 56 149 0.0 0.0 0.00 0.00 0.00 85 1014.2
20260505165229 56 156 0.0 0.0 0.00 0.00 0.00 86 1014.3
20260505164729 56 155 0.0 0.0 0.00 0.00 0.00 86 1014.4
20260505164235 56 141 0.0 0.0 0.00 0.00 0.00 85 1014.7
20260505163732 56 143 0.0 0.0 0.00 0.00 0.00 85 1014.2
20260505163230 56 137 0.0 0.0 0.00 0.00 0.00 86 1014.3
20260505162729 56 143 0.0 0.0 0.00 0.00 0.00 86 1014.3
20260505162517 56 150 0.0 0.0 0.00 0.00 0.00 86 1014.3
20260505161729 56 147 0.0 0.0 0.00 0.00 0.00 86 1014.4
20260505161229 56 152 0.0 0.0 0.00 0.00 0.00 86 1014.0
20260505160729 56 158 0.0 0.0 0.00 0.00 0.00 86 1014.3
20260505160230 56 140 0.0 0.0 0.00 0.00 0.00 86 1014.3
20260505153229 55 148 0.0 0.0 0.00 0.00 0.00 87 1014.2
20260505152729 55 148 0.0 0.0 0.00 0.00 0.00 87 1014.0
20260505152229 55 146 0.0 0.0 0.00 0.00 0.00 87 1014.0
20260505151728 55 152 0.0 0.0 0.00 0.00 0.00 87 1014.1
20260505151228 55 150 0.0 0.0 0.00 0.00 0.00 87 1014.0
20260505151016 55 146 0.0 0.0 0.00 0.00 0.00 87 1014.0
20260505150229 55 144 0.0 0.0 0.00 0.00 0.00 87 1013.9
20260505140229 55 146 0.0 0.0 0.00 0.00 0.00 88 1013.4
20260505130254 55 149 0.0 2.0 0.00 0.00 0.00 89 1012.6
20260505124723 54 149 0.0 2.0 0.00 0.00 0.00 89 1012.8
20260505124222 54 151 0.0 2.0 0.00 0.00 0.00 89 1012.6
20260505123723 54 150 1.0 2.0 0.00 0.00 0.00 89 1012.6
20260505123518 54 154 0.0 1.0 0.00 0.00 0.00 89 1012.7
20260505122723 54 153 0.0 1.0 0.00 0.00 0.00 89 1012.3
20260505122222 54 150 0.0 1.0 0.00 0.00 0.00 89 1012.4
20260505122013 54 150 0.0 1.0 0.00 0.00 0.00 89 1012.3
20260505121224 54 146 0.0 1.0 0.00 0.00 0.00 89 1012.5
20260505120723 54 151 0.0 1.0 0.00 0.00 0.00 89 1012.5
20260505120222 54 159 1.0 1.0 0.00 0.00 0.00 90 1012.2
20260505115724 54 151 0.0 1.0 0.00 0.00 0.00 90 1012.3
20260505115514 54 150 0.0 1.0 0.00 0.00 0.00 90 1012.4
20260505114723 54 150 1.0 1.0 0.00 0.00 0.00 90 1012.2
20260505114532 54 148 0.0 2.0 0.00 0.00 0.00 90 1012.4
20260505113724 54 150 0.0 2.0 0.00 0.00 0.00 90 1012.2
20260505113223 54 150 0.0 2.0 0.00 0.00 0.00 91 1012.1
20260505112723 54 150 1.0 2.0 0.00 0.00 0.00 90 1012.1
20260505112223 54 149 0.0 1.0 0.00 0.00 0.00 91 1012.2
20260505111723 54 163 0.0 2.0 0.00 0.00 0.00 90 1012.0
20260505111551 54 165 1.0 3.0 0.00 0.00 0.00 90 1012.2
20260505110723 54 160 1.0 3.0 0.00 0.00 0.00 90 1012.2
20260505110222 54 147 0.0 2.0 0.00 0.00 0.00 90 1012.2
20260505101723 54 139 1.0 2.0 0.00 0.00 0.00 91 1011.8
20260505101222 54 139 0.0 0.0 0.00 0.00 0.00 92 1011.8
20260505100723 53 138 0.0 0.0 0.00 0.00 0.00 93 1011.8
20260505100222 53 138 0.0 0.0 0.00 0.00 0.00 93 1011.7
20260505095723 53 138 0.0 0.0 0.00 0.00 0.00 93 1011.6
20260505095507 53 138 0.0 0.0 0.00 0.00 0.00 93 1011.4
20260505095010 53 138 0.0 0.0 0.00 0.00 0.00 94 1011.5
20260505094221 53 138 0.0 0.0 0.00 0.00 0.00 94 1011.2
20260505093723 53 138 0.0 0.0 0.00 0.00 0.00 95 1011.4
20260505093326 53 138 0.0 0.0 0.00 0.00 0.00 95 1011.3
20260505093043 53 138 0.0 0.0 0.00 0.00 0.00 94 1011.2
20260505091724 53 138 0.0 0.0 0.00 0.00 0.00 94 1011.4
20260505091223 53 138 0.0 0.0 0.00 0.00 0.00 93 1011.2
20260505090724 53 138 0.0 0.0 0.00 0.00 0.00 93 1011.3
20260505090222 53 138 0.0 0.0 0.00 0.00 0.00 93 1011.5
20260505085815 54 138 0.0 0.0 0.00 0.00 0.00 92 1011.1
20260505085753 54 138 0.0 0.0 0.00 0.00 0.00 92 1011.1
20260505084723 54 138 0.0 0.0 0.00 0.00 0.00 92 1011.0
20260505084222 54 138 0.0 0.0 0.00 0.00 0.00 92 1011.1
20260505083723 55 138 0.0 0.0 0.00 0.00 0.00 91 1011.3
20260505083223 55 139 0.0 0.0 0.00 0.00 0.00 90 1011.2
20260505082723 55 139 0.0 0.0 0.00 0.00 0.00 90 1011.1
20260505082222 55 139 0.0 0.0 0.00 0.00 0.00 90 1011.0
20260505081723 55 139 0.0 0.0 0.00 0.00 0.00 89 1011.1
20260505081222 56 139 0.0 0.0 0.00 0.00 0.00 89 1010.9
20260505080723 56 140 0.0 0.0 0.00 0.00 0.00 88 1010.8
20260505080223 56 139 0.0 0.0 0.00 0.00 0.00 88 1010.9
20260505075723 56 138 0.0 0.0 0.00 0.00 0.00 86 1010.7
20260505075222 56 146 0.0 0.0 0.00 0.00 0.00 87 1010.9
20260505075018 57 146 0.0 0.0 0.00 0.00 0.00 86 1010.9
20260505074222 57 147 0.0 0.0 0.00 0.00 0.00 86 1010.8
20260505073723 57 146 0.0 0.0 0.00 0.00 0.00 86 1011.0
20260505073223 58 145 0.0 0.0 0.00 0.00 0.00 85 1010.5
20260505073015 58 150 0.0 0.0 0.00 0.00 0.00 84 1010.7
20260505072222 58 150 0.0 0.0 0.00 0.00 0.00 84 1010.6
20260505071723 58 145 0.0 0.0 0.00 0.00 0.00 85 1010.4
20260505071233 58 142 0.0 0.0 0.00 0.00 0.00 83 1010.6
20260505070724 58 142 0.0 0.0 0.00 0.00 0.00 84 1010.6
20260505070223 58 140 0.0 0.0 0.00 0.00 0.00 83 1010.5
20260505065723 58 131 0.0 0.0 0.00 0.00 0.00 86 1010.3
20260505065223 58 131 0.0 0.0 0.00 0.00 0.00 84 1010.2
20260505064723 58 131 0.0 0.0 0.00 0.00 0.00 84 1010.3
20260505064223 58 130 0.0 0.0 0.00 0.00 0.00 87 1010.3
20260505063723 58 130 0.0 0.0 0.00 0.00 0.00 87 1010.2
20260505063223 58 130 0.0 0.0 0.00 0.00 0.00 87 1010.1
20260505062723 58 130 0.0 0.0 0.00 0.00 0.00 86 1010.1
20260505062223 58 130 0.0 0.0 0.00 0.00 0.00 84 1010.0
20260505061723 57 130 0.0 0.0 0.00 0.00 0.00 85 1009.9
20260505061223 57 130 0.0 0.0 0.00 0.00 0.00 84 1010.0
20260505060724 58 130 0.0 0.0 0.00 0.00 0.00 83 1009.9
20260505060224 58 130 0.0 0.0 0.00 0.00 0.00 83 1009.9
20260505060014 58 130 0.0 0.0 0.00 0.00 0.00 82 1010.0
20260505055558 59 130 0.0 0.0 0.00 0.00 0.00 81 1009.8
20260505055549 58 130 0.0 0.0 0.00 0.00 0.00 81 1009.7
20260505054222 59 130 0.0 0.0 0.00 0.00 0.00 81 1009.6
20260505053724 59 130 0.0 0.0 0.00 0.00 0.00 80 1009.5
20260505053222 60 131 0.0 0.0 0.00 0.00 0.00 78 1009.7
20260505052723 60 131 0.0 0.0 0.00 0.00 0.00 78 1009.5
20260505052222 60 131 0.0 0.0 0.00 0.00 0.00 78 1009.5
20260505051723 60 131 0.0 0.0 0.00 0.00 0.00 77 1009.4
20260505051222 60 131 0.0 0.0 0.00 0.00 0.00 76 1009.4
20260505051015 60 131 0.0 0.0 0.00 0.00 0.00 75 1009.5
20260505050222 60 131 0.0 0.0 0.00 0.00 0.00 75 1009.4
20260505041711 61 130 0.0 0.0 0.00 0.00 0.00 77 1008.8
20260505041210 62 130 0.0 0.0 0.00 0.00 0.00 75 1008.9
20260505040711 62 130 0.0 0.0 0.00 0.00 0.00 73 1008.8
20260505040211 62 130 0.0 0.0 0.00 0.00 0.00 73 1008.7
20260505035711 62 130 0.0 0.0 0.00 0.00 0.00 73 1008.6
20260505035209 62 130 0.0 0.0 0.00 0.00 0.00 74 1008.5
20260505034711 63 129 0.0 0.0 0.00 0.00 0.00 75 1008.6
20260505034506 63 129 0.0 0.0 0.00 0.00 0.00 72 1008.5
20260505034012 63 129 0.0 0.0 0.00 0.00 0.00 73 1008.3
20260505033209 64 129 0.0 0.0 0.00 0.00 0.00 72 1008.4
20260505032959 64 128 0.0 0.0 0.00 0.00 0.00 72 1008.3
20260505032202 64 128 0.0 0.0 0.00 0.00 0.00 72 1008.1
20260505031703 65 128 0.0 0.0 0.00 0.00 0.00 71 1008.4
20260505031453 65 128 0.0 0.0 0.00 0.00 0.00 70 1007.9
20260505031004 66 128 0.0 0.0 0.00 0.00 0.00 70 1008.1
20260505030202 66 128 0.0 0.0 0.00 0.00 0.00 66 1008.0
20260505025702 67 128 0.0 0.0 0.00 0.00 0.00 69 1008.1
20260505025205 67 128 0.0 0.0 0.00 0.00 0.00 67 1007.7
20260505024702 68 128 0.0 0.0 0.00 0.00 0.00 63 1007.8
20260505024202 67 129 0.0 0.0 0.00 0.00 0.00 61 1007.6
20260505023706 67 137 0.0 0.0 0.00 0.00 0.00 67 1007.7
20260505023203 68 137 0.0 0.0 0.00 0.00 0.00 66 1007.7
20260505022702 68 137 0.0 0.0 0.00 0.00 0.00 66 1007.8
20260505022205 68 137 0.0 0.0 0.00 0.00 0.00 67 1007.4
20260505021702 68 137 0.0 0.0 0.00 0.00 0.00 67 1007.7
20260505021202 69 137 0.0 0.0 0.00 0.00 0.00 64 1007.6
20260505021003 69 137 0.0 0.0 0.00 0.00 0.00 64 1007.5
20260505020202 69 137 0.0 0.0 0.00 0.00 0.00 64 1007.8
20260505015753 70 138 0.0 0.0 0.00 0.00 0.00 57 1007.7
20260505015733 70 137 0.0 0.0 0.00 0.00 0.00 63 1007.7
20260505014705 70 138 0.0 0.0 0.00 0.00 0.00 60 1007.9
20260505014203 70 138 0.0 0.0 0.00 0.00 0.00 65 1007.7
20260505013702 70 137 0.0 0.0 0.00 0.00 0.00 63 1007.8
20260505013206 71 137 0.0 0.0 0.00 0.00 0.00 61 1007.8
20260505012702 71 137 0.0 0.0 0.00 0.00 0.00 61 1007.7
20260505012202 71 137 0.0 0.0 0.00 0.00 0.00 55 1007.8
20260505011705 72 125 0.0 0.0 0.00 0.00 0.00 54 1007.8
20260505011203 72 135 0.0 0.0 0.00 0.00 0.00 54 1007.7
20260505010702 73 136 0.0 0.0 0.00 0.00 0.00 51 1007.7
20260505010205 73 119 0.0 0.0 0.00 0.00 0.00 48 1007.7
20260505005703 73 150 0.0 0.0 0.00 0.00 0.00 53 1007.8
20260505005204 74 159 0.0 0.0 0.00 0.00 0.00 55 1007.6
20260505004705 74 119 0.0 1.0 0.00 0.00 0.00 54 1007.6
20260505004203 75 149 0.0 1.0 0.00 0.00 0.00 51 1007.8
20260505003702 75 126 0.0 1.0 0.00 0.00 0.00 45 1007.7
20260505003205 74 177 1.0 1.0 0.00 0.00 0.00 44 1007.7
20260505002702 75 131 0.0 1.0 0.00 0.00 0.00 50 1007.6
20260505002202 75 142 0.0 1.0 0.00 0.00 0.00 46 1007.7
20260505002003 76 113 0.0 1.0 0.00 0.00 0.00 40 1007.9
20260505001202 74 169 0.0 0.0 0.00 0.00 0.00 47 1007.7
20260505000704 74 186 0.0 1.0 0.00 0.00 0.00 44 1007.6
20260505000507 75 149 0.0 1.0 0.00 0.00 0.00 58 1007.9
20260504235702 76 144 0.0 0.0 0.00 0.00 0.00 53 1007.7
20260504235205 76 144 0.0 0.0 0.00 0.00 0.00 48 1007.9
20260504234702 76 161 0.0 0.0 0.00 0.00 0.00 46 1007.9
20260504234202 76 141 0.0 0.0 0.00 0.00 0.00 50 1007.8
20260504233705 76 140 0.0 2.0 0.00 0.00 0.00 46 1007.8
20260504233203 76 149 0.0 2.0 0.00 0.00 0.00 44 1007.7
20260504232709 76 144 0.0 0.0 0.00 0.00 0.00 45 1008.0
20260504232208 76 158 0.0 0.0 0.00 0.00 0.00 46 1008.0
20260504231704 76 145 0.0 0.0 0.00 0.00 0.00 46 1007.9
20260504231203 77 140 0.0 0.0 0.00 0.00 0.00 49 1007.9
20260504230955 77 165 0.0 0.0 0.00 0.00 0.00 43 1007.9
20260504230202 77 146 0.0 0.0 0.00 0.00 0.00 46 1007.9
20260504225949 77 136 0.0 0.0 0.00 0.00 0.00 45 1008.0
20260504225203 77 149 0.0 0.0 0.00 0.00 0.00 44 1008.1
20260504224954 77 137 0.0 0.0 0.00 0.00 0.00 43 1008.1
20260504224203 77 163 0.0 0.0 0.00 0.00 0.00 44 1008.0
20260504223702 77 137 0.0 0.0 0.00 0.00 0.00 44 1008.1
20260504223512 77 146 0.0 0.0 0.00 0.00 0.00 45 1008.3
20260504222702 76 65 0.0 0.0 0.00 0.00 0.00 44 1008.4
20260504222202 77 106 0.0 0.0 0.00 0.00 0.00 42 1008.3
20260504221705 76 37 0.0 0.0 0.00 0.00 0.00 44 1008.6
20260504221203 77 152 0.0 0.0 0.00 0.00 0.00 45 1008.8
20260504220702 77 134 0.0 0.0 0.00 0.00 0.00 45 1008.7
20260504220209 76 136 0.0 0.0 0.00 0.00 0.00 43 1008.6
20260504215701 76 141 0.0 0.0 0.00 0.00 0.00 46 1008.6
20260504215202 76 131 0.0 0.0 0.00 0.00 0.00 41 1008.7
20260504214705 76 265 0.0 0.0 0.00 0.00 0.00 43 1008.7
20260504214202 76 147 0.0 0.0 0.00 0.00 0.00 43 1008.6
20260504213947 76 150 0.0 0.0 0.00 0.00 0.00 42 1008.7
20260504213204 76 158 0.0 0.0 0.00 0.00 0.00 41 1008.8
20260504212702 76 142 0.0 0.0 0.00 0.00 0.00 41 1008.9
20260504212202 76 148 0.0 0.0 0.00 0.00 0.00 41 1008.7
20260504211704 76 169 0.0 0.0 0.00 0.00 0.00 40 1008.8